ステレオ彗星

414P/STEREO (2021)

English version
Home page
Updated on August 1, 2021

---------------------------------------------------------------------

・ プロフィール

符号 414P/2021 A3
検出日 2021年1月4日
検出光度 19.1等
検出者 M. Meyer (Limburg, Germany), Zwicky Transient Facility

・ 写真集

・ 軌道要素

Epoch 2021 Jan. 26.0 TT = JDT 2459240.5
T 2021 Jan. 25.38535 TT                                 Rudenko
q   0.5263791            (2000.0)            P               Q
n   0.21089592     Peri.  210.73315     -0.27666987     -0.87919219
a   2.7952711      Node   257.79036     +0.94248555     -0.16947613
e   0.8116894      Incl.   23.38380     +0.18754940     -0.44530769
P   4.67
From 154 observations 2016 May 11-2021 Jan. 19, mean residual 1".9.

・ 星図

・ 光度変化

        m1 = 23.0 + 5 logΔ + 40.0 log r

---------------------------------------------------------------------

軌道要素はM.P.E.C. 2021-B143に掲載されたものです。
星図はステラナビゲータ Ver.10 (アストロアーツ) で作成したものです。
光度グラフはComet for Windowsで作成したものです。

---------------------------------------------------------------------

Copyright(C) Seiichi Yoshida (comet@aerith.net). All rights reserved.